Change the Weather History Date:

Saturday, December 22, 2012

  Actual Average (KEAU) Record (KEAU)
Temperature  
Mean Temperature 14 °F 17 °F  
Max Temperature 26 °F 25 °F 52 °F (1941)
Min Temperature 3 °F 8 °F -24 °F (1989)
Degree Days  
Heating Degree Days 50 48  
Month to date heating degree days 988  
Since 1 July heating degree days 2734  
Cooling Degree Days 0 0  
Month to date cooling degree days 0  
Year to date cooling degree days 579  
Moisture  
Dew Point 7 °F    
Average Humidity 76    
Maximum Humidity 92    
Minimum Humidity 51    
Precipitation  
Precipitation 0.00 in 0.03 in 0.73 in (1968)
Month to date precipitation 0.76  
Year to date precipitation 30.72  
Snow  
Snow 0.00 in 0.30 in 9.40 in (1968)
Month to date snowfall 6.7  
Since 1 July snowfall 13.0  
Snow Depth -    
Sea Level Pressure  
Sea Level Pressure 30.05 in    
Wind  
Wind Speed 2 mph (South)    
Max Wind Speed 8 mph    
Max Gust Speed -    
Visibility 10 miles    
Events      
T = Trace of Precipitation, MM = Missing Value Source: NWS Daily Summary

Daily Weather History Graph

Daily Weather History Graph

Search for Another Location

Airport or City:

Trip Planner

Search our weather history database for the weather conditions in past years. The results will help you decide how hot, cold, wet, or windy it might be!

Date:

Astronomy

Dec. 22, 2012 Rise Set
Actual Time 7:42 AM CST 4:29 PM CST
Civil Twilight 7:09 AM CST 5:03 PM CST
Nautical Twilight 6:31 AM CST 5:40 PM CST
Astronomical Twilight 5:56 AM CST 6:16 PM CST
Moon 12:54 PM CST (12/22) 2:20 AM CST (12/22)
Length of Visible Light 9h 54m
Length of Day
8h 46m
Waxing Gibbous, 74% of the Moon is Illuminated
Dec 22
Waxing Gibbous
Dec 28
Full
Jan 4
Last Quarter
Jan 11
New
Jan 18
First Quarter

Hourly Weather History & Observations

Time (CST) Temp. Windchill Dew Point Humidity Pressure Visibility Wind Dir Wind Speed Gust Speed Precip Events Conditions
12:15 AM 8.6 °F - 5.0 °F 85% 30.20 in 10.0 mi Calm Calm - N/A   Clear
12:35 AM 8.6 °F 2.0 °F 5.0 °F 85% 30.20 in 10.0 mi WSW 3.5 mph - N/A   Clear
12:55 AM 8.6 °F - 5.0 °F 85% 30.20 in 10.0 mi Calm Calm - N/A   Clear
1:15 AM 8.6 °F - 5.0 °F 85% 30.20 in 10.0 mi Calm Calm - N/A   Clear
1:35 AM 8.6 °F 0.1 °F 5.0 °F 85% 30.20 in 10.0 mi WSW 4.6 mph - N/A   Clear
1:55 AM 6.8 °F - 3.2 °F 85% 30.19 in 10.0 mi Calm Calm - N/A   Clear
2:15 AM 6.8 °F - 3.2 °F 85% 30.19 in 10.0 mi Calm Calm - N/A   Clear
2:35 AM 6.8 °F - 3.2 °F 85% 30.19 in 10.0 mi Calm Calm - N/A   Clear
2:55 AM 5.0 °F - 3.2 °F 92% 30.18 in 10.0 mi Calm Calm - N/A   Clear
3:55 AM 5.0 °F - 1.4 °F 85% 30.15 in 10.0 mi Calm Calm - N/A   Clear
4:15 AM 3.2 °F - 1.4 °F 92% 30.15 in 10.0 mi Calm Calm - N/A   Clear
4:55 AM 3.2 °F - 1.4 °F 92% 30.14 in 10.0 mi Calm Calm - N/A   Clear
5:15 AM 5.0 °F - 1.4 °F 85% 30.14 in 10.0 mi Calm Calm - N/A   Clear
5:55 AM 3.2 °F - 1.4 °F 92% 30.14 in 10.0 mi Calm Calm - N/A   Clear
6:15 AM 3.2 °F - -0.4 °F 85% 30.12 in 10.0 mi Calm Calm - N/A   Clear
6:35 AM 3.2 °F -6.2 °F -0.4 °F 85% 30.11 in 10.0 mi East 4.6 mph - N/A   Clear
6:55 AM 3.2 °F - -0.4 °F 85% 30.10 in 10.0 mi Calm Calm - N/A   Clear
7:15 AM 3.2 °F -4.2 °F -0.4 °F 85% 30.10 in 10.0 mi East 3.5 mph - N/A   Clear
7:35 AM 3.2 °F - 1.4 °F 92% 30.09 in 10.0 mi Calm Calm - N/A   Clear
7:55 AM 5.0 °F - 1.4 °F 85% 30.09 in 10.0 mi Calm Calm - N/A   Clear
8:15 AM 5.0 °F -2.1 °F 1.4 °F 85% 30.09 in 10.0 mi ESE 3.5 mph - N/A   Clear
8:35 AM 5.0 °F - 1.4 °F 85% 30.08 in 7.0 mi Calm Calm - N/A   Clear
8:55 AM 8.6 °F 2.0 °F 3.2 °F 79% 30.08 in 10.0 mi SE 3.5 mph - N/A   Clear
9:15 AM 8.6 °F -1.3 °F 5.0 °F 85% 30.07 in 10.0 mi ESE 5.8 mph - N/A   Clear
9:35 AM 10.4 °F 0.8 °F 5.0 °F 79% 30.07 in 10.0 mi ESE 5.8 mph - N/A   Clear
9:55 AM 10.4 °F 4.0 °F 6.8 °F 85% 30.07 in 10.0 mi East 3.5 mph - N/A   Clear
10:15 AM 12.2 °F 4.3 °F 8.6 °F 85% 30.08 in 10.0 mi ESE 4.6 mph - N/A   Clear
10:35 AM 14.0 °F 5.1 °F 8.6 °F 79% 30.07 in 10.0 mi ESE 5.8 mph - N/A   Clear
10:55 AM 17.6 °F 8.2 °F 8.6 °F 68% 30.06 in 10.0 mi ESE 6.9 mph - N/A   Clear
11:15 AM 17.6 °F 9.3 °F 10.4 °F 73% 30.05 in 10.0 mi ESE 5.8 mph - N/A   Clear
11:35 AM 19.4 °F 14.3 °F 10.4 °F 68% 30.04 in 10.0 mi East 3.5 mph - N/A   Clear
11:55 AM 19.4 °F 14.3 °F 10.4 °F 68% 30.03 in 10.0 mi East 3.5 mph - N/A   Clear
12:15 PM 19.4 °F 14.3 °F 10.4 °F 68% 30.02 in 10.0 mi ESE 3.5 mph - N/A   Clear
12:35 PM 21.2 °F 16.4 °F 10.4 °F 63% 30.00 in 10.0 mi SE 3.5 mph - N/A   Clear
12:55 PM 21.2 °F - 10.4 °F 63% 29.99 in 10.0 mi Calm Calm - N/A   Clear
1:15 PM 23.0 °F - 10.4 °F 59% 29.99 in 10.0 mi Calm Calm - N/A   Clear
1:35 PM 23.0 °F - 10.4 °F 59% 29.98 in 10.0 mi Calm Calm - N/A   Clear
1:55 PM 23.0 °F - 12.2 °F 63% 29.98 in 10.0 mi Calm Calm - N/A   Clear
2:15 PM 24.8 °F 19.1 °F 10.4 °F 54% 29.97 in 10.0 mi South 4.6 mph - N/A   Clear
2:35 PM 26.6 °F - 10.4 °F 51% 29.97 in 10.0 mi Calm Calm - N/A   Clear
3:15 PM 24.8 °F 20.5 °F 10.4 °F 54% 29.96 in 10.0 mi SSE 3.5 mph - N/A   Clear
3:35 PM 24.8 °F - 10.4 °F 54% 29.97 in 10.0 mi Calm Calm - N/A   Clear
3:55 PM 24.8 °F - 10.4 °F 54% 29.96 in 10.0 mi Calm Calm - N/A   Clear
4:15 PM 24.8 °F - 10.4 °F 54% 29.97 in 10.0 mi Calm Calm - N/A   Clear
4:35 PM 23.0 °F - 10.4 °F 59% 29.96 in 10.0 mi Calm Calm - N/A   Clear
4:55 PM 23.0 °F - 10.4 °F 59% 29.97 in 10.0 mi Calm Calm - N/A   Clear
5:15 PM 21.2 °F - 12.2 °F 68% 29.97 in 10.0 mi Calm Calm - N/A   Clear
5:35 PM 19.4 °F - 10.4 °F 68% 29.97 in 10.0 mi Calm Calm - N/A   Clear
5:55 PM 19.4 °F - 10.4 °F 68% 29.97 in 10.0 mi Calm Calm - N/A   Clear
6:15 PM 17.6 °F - 10.4 °F 73% 29.97 in 10.0 mi Calm Calm - N/A   Clear
6:35 PM 17.6 °F - 10.4 °F 73% 29.98 in 10.0 mi Calm Calm - N/A   Clear
6:55 PM 17.6 °F - 12.2 °F 79% 29.99 in 10.0 mi Calm Calm - N/A   Clear
7:15 PM 17.6 °F - 10.4 °F 73% 29.98 in 10.0 mi Calm Calm - N/A   Clear
7:35 PM 17.6 °F - 10.4 °F 73% 29.98 in 10.0 mi Calm Calm - N/A   Clear
7:55 PM 14.0 °F 6.5 °F 8.6 °F 79% 29.98 in 10.0 mi WSW 4.6 mph - N/A   Clear
8:15 PM 15.8 °F 8.6 °F 8.6 °F 73% 29.98 in 10.0 mi West 4.6 mph - N/A   Clear
8:35 PM 17.6 °F 9.3 °F 10.4 °F 73% 29.99 in 10.0 mi WSW 5.8 mph - N/A   Clear
8:55 PM 17.6 °F 10.7 °F 10.4 °F 73% 29.98 in 10.0 mi West 4.6 mph - N/A   Clear
9:15 PM 14.0 °F 8.2 °F 10.4 °F 86% 29.98 in 10.0 mi West 3.5 mph - N/A   Clear
9:35 PM 14.0 °F 5.1 °F 10.4 °F 86% 29.98 in 10.0 mi West 5.8 mph - N/A   Clear
9:55 PM 14.0 °F 5.1 °F 10.4 °F 86% 29.98 in 10.0 mi West 5.8 mph - N/A   Clear
10:15 PM 14.0 °F 5.1 °F 10.4 °F 86% 29.99 in 10.0 mi West 5.8 mph - N/A   Clear
10:35 PM 14.0 °F 2.9 °F 10.4 °F 86% 29.99 in 10.0 mi West 8.1 mph - N/A   Clear
10:55 PM 14.0 °F 3.9 °F 10.4 °F 86% 30.00 in 10.0 mi West 6.9 mph - N/A   Clear
11:15 PM 14.0 °F 5.1 °F 8.6 °F 79% 30.00 in 10.0 mi West 5.8 mph - N/A   Clear
11:35 PM 14.0 °F 2.9 °F 10.4 °F 86% 30.00 in 10.0 mi NW 8.1 mph - N/A   Clear
11:55 PM 17.6 °F 7.3 °F 12.2 °F 79% 30.00 in 10.0 mi NW 8.1 mph - N/A   Clear